1998-067UR

Last updated on Mon Jan 09 2023 00:03:43 GMT+0000 (Coordinated Universal Time)

1 55124U 98067UR 23008.46456905 .00079278 00000+0 12952-2 0 9992 2 55124 51.6424 39.6209 0002503 296.3863 63.6870 15.51847589 1618
UTC large
Height (km)
Speed (km/s)
/
Latitude / Longitude
Inclination (degrees)
Orbital Period (minutes)
Azimuth
Elevation
Range (km)
Doppler Factor

Next 0 passes for location: London (51.5072 / 0.1276)

Sorry there are no passes over London.